Vertical_Velocity
-4 -2 -2 -1 1 -0 -2 1 1 1 -1 3 2 4 2 -1 -3 -1 1 2 3 1 -0 -1 -1 -0 -1 -1 -1 -1 -2 -1 1 2 1 2 -0 2 0 3 -2 -1 3
-7 -5 -4 -2 -1 -1 -2 -3 -3 -1 1 -1 -0 -1 2 1 0 -5 -1 3 3 2 2 1 1 0 -0 -1 -1 -1 0 -0 -1 0 4 2 2 1 4 0 -4 1 2
-1 -1 -3 -1 -0 -1 -2 -1 -4 -3 -1 -3 -0 2 -0 2 4 1 -2 -2 1 -1 1 1 1 1 1 -1 -1 -0 -1 0 -2 -1 -1 2 2 -2 -3 -7 -1 6 -3
-1 -3 -2 -1 -1 -3 -2 -3 -2 0 -4 -3 1 2 -0 -2 -1 2 2 -2 -4 0 -1 -4 -2 1 -0 3 1 -2 -1 0 0 0 -1 -0 1 3 3 1 -1 -3 4
5 4 3 -0 0 1 -0 -0 2 -3 0 1 -1 -1 -0 -2 -1 -5 -5 1 -3 -8 -3 3 -2 -4 -1 -0 1 2 0 -0 -2 0 -2 -1 -1 -1 0 3 4 2 5
-2 0 2 2 0 -4 -6 -9 -10 -7 -12 -10 0 3 2 1 -1 -5 1 -5 -3 -2 -4 -1 2 -1 -2 -1 -1 -0 1 1 0 -1 -1 -1 -0 1 -3 1 0 1 -3
-0 -1 -1 -3 -5 -5 -4 -3 1 -2 1 -8 -11 -3 2 -3 -4 8 -4 -4 -5 -2 -4 4 2 1 3 -1 -2 -3 2 2 3 -0 -2 -0 -0 0 -0 -2 -2 -3 -1
-4 -2 -1 1 2 2 1 -0 -3 1 -9 -6 -11 -14 -7 23 -4 1 3 -8 -1 -2 -1 -5 -2 -1 1 2 3 1 0 3 -0 4 2 1 -1 1 0 -0 -1 -3 -4
1 1 -2 -3 -3 -4 -2 -1 1 1 -5 -2 0 -9 -12 -13 -12 25 14 -3 -3 -3 -1 0 -4 -3 0 3 5 2 2 -0 -1 3 3 4 1 3 -0 0 0 1 -5
-0 -4 -7 -8 -7 -2 -5 -5 -3 -3 -5 -5 -2 -3 -0 -11 -18 -16 6 15 13 5 -0 -1 -5 -3 -6 -2 3 6 5 1 -1 3 -0 6 1 4 3 1 0 -1 -2
2 -3 -5 -5 -3 -5 -9 -9 -8 -6 -5 -4 -4 -6 -7 -7 -10 -21 -23 -1 -1 7 6 0 1 1 -1 -1 -0 4 3 6 9 5 -0 4 -1 -1 3 -1 -0 2 -2
4 2 2 2 3 1 1 2 -0 -2 -1 -3 -3 -5 -5 -4 3 -2 -10 -7 -13 14 -2 1 -2 9 4 1 -5 3 3 9 4 2 -3 -1 1 -2 -4 -0 1 1 -1
5 5 4 3 -0 -3 -3 -4 -3 -2 -0 0 3 -2 -4 -2 -9 -4 -9 -8 3 -2 3 8 -2 4 -2 1 6 3 1 1 5 3 52 23 1 1 -3 -2 -2 -4 -2
-2 -1 1 3 0 -1 2 1 4 3 3 0 0 -0 2 1 1 -2 -0 -7 -5 -0 14 -10 -2 0 -3 -3 -1 2 6 -2 7 2 8 2 0 4 1 6 -1 1 1
-7 -4 -3 0 3 -1 -0 0 3 3 1 2 1 2 -1 -0 -3 -1 -1 0 -7 -11 7 17 -9 1 -1 -1 -3 -1 3 2 -2 6 1 4 12 11 4 -0 7 4 3
-6 -6 -4 -4 -7 -1 1 0 1 7 4 3 2 3 -1 -1 -1 3 -2 -1 -1 -7 -14 -1 12 1 0 -2 -2 -1 -1 5 2 5 -0 9 -4 11 14 22 10 4 -1
-1 -3 2 -1 2 -0 1 0 1 1 0 1 -0 -2 -1 2 2 2 1 -1 -2 -4 -9 6 -1 6 5 -1 -3 -4 0 3 2 4 7 9 3 -3 -3 1 4 3 2
0 1 -2 1 1 -4 -3 -0 -3 -2 1 0 -2 -2 -1 -0 0 -1 -2 -3 -3 3 -6 -2 1 4 2 1 1 -1 -3 1 1 1 9 -6 2 1 0 9 2 11 4
2 3 -3 2 1 -3 -4 -0 0 1 -0 -1 0 -1 -1 -4 -0 -1 -1 -1 1 -1 -1 -4 1 1 2 3 -1 -4 -5 -5 1 6 -2 0 3 2 -0 -7 1 -0 1
0 -1 -2 -1 -0 -2 -2 -0 1 2 1 -1 -1 -2 -2 -2 -3 -2 -3 2 -0 -1 -1 -4 -2 1 2 5 1 1 -4 -0 -4 1 5 1 2 3 7 10 6 2 1
2 4 0 -1 1 -1 -1 -1 1 2 1 -0 -1 -1 -2 -2 -4 -4 -3 2 -1 -2 -1 -1 -3 -3 4 4 1 -1 1 -4 1 3 -0 3 1 -2 -0 1 3 3 -2
-0 1 5 1 -2 -5 -0 1 1 1 -1 -2 -1 1 0 -0 -0 -1 -1 -3 -1 -1 -1 -3 -2 -1 4 -3 -2 -3 -3 0 1 -5 -3 0 -7 1 -3 -3 -5 -1 3
3 3 -0 -5 -5 -2 -0 -1 -0 1 2 -1 -2 -2 1 -1 0 2 3 1 1 -0 -3 -1 -1 1 1 -1 -2 -0 -2 -1 2 3 -4 3 -5 0 -0 -0 -2 -1 -1
2 13 -1 -5 -3 -2 -0 -2 -1 -1 -0 -2 -3 -4 -4 0 0 0 0 2 4 1 -2 -4 -2 3 2 -4 1 -1 -5 -1 2 8 -4 0 -10 -1 -8 -4 -6 -7 -0
4 -0 -4 -3 -1 -1 -2 -1 0 -1 -0 -1 -3 -2 -5 -1 0 -1 1 1 1 -0 -2 1 0 -1 -0 -1 -0 1 3 1 3 1 -5 7 -2 -3 -7 -2 -4 -1 2
-1 -5 -2 -2 -2 -1 0 -2 -0 2 -2 -1 3 1 -1 -1 0 1 2 0 2 -0 0 -1 -1 -1 1 -0 -1 2 -3 1 0 5 -5 6 1 4 5 2 3 1 -4
Height
5800 5795 5792 5788 5786 5784 5781 5778 5777 5775 5774 5773 5772 5771 5769 5766 5762 5761 5760 5759 5758 5756 5755 5753 5752 5752 5751 5751 5751 5752 5751 5752 5753 5754 5755 5755 5757 5760 5762 5763 5766 5764 5764
5793 5788 5784 5779 5776 5773 5771 5769 5767 5765 5764 5762 5761 5759 5759 5758 5757 5755 5751 5749 5748 5747 5745 5744 5743 5742 5742 5741 5741 5741 5742 5743 5744 5745 5747 5748 5750 5753 5754 5755 5758 5758 5760
5785 5780 5775 5770 5767 5765 5762 5759 5757 5755 5753 5752 5750 5748 5746 5744 5742 5741 5741 5740 5738 5736 5734 5733 5732 5731 5731 5730 5729 5729 5730 5731 5734 5736 5737 5738 5740 5742 5745 5749 5750 5751 5754
5776 5771 5766 5762 5759 5756 5752 5749 5747 5744 5742 5740 5738 5737 5734 5731 5729 5727 5726 5724 5723 5722 5722 5720 5719 5718 5717 5716 5717 5718 5718 5719 5720 5723 5726 5728 5729 5732 5734 5737 5740 5742 5744
5767 5763 5759 5754 5750 5746 5742 5738 5734 5731 5729 5727 5725 5722 5720 5717 5714 5711 5709 5706 5706 5706 5705 5705 5704 5702 5702 5701 5701 5703 5703 5705 5707 5709 5711 5714 5717 5720 5724 5727 5730 5732 5734
5753 5750 5747 5744 5739 5734 5730 5726 5722 5717 5714 5712 5710 5708 5704 5701 5697 5695 5691 5688 5686 5685 5685 5685 5684 5685 5685 5684 5685 5686 5687 5687 5690 5693 5696 5699 5703 5706 5709 5714 5718 5721 5725
5742 5738 5733 5728 5723 5718 5714 5711 5706 5702 5697 5693 5690 5688 5686 5682 5679 5676 5671 5668 5667 5665 5663 5662 5663 5664 5664 5665 5666 5666 5668 5670 5672 5675 5679 5683 5687 5691 5694 5698 5704 5708 5713
5729 5724 5719 5713 5709 5704 5698 5693 5687 5681 5676 5672 5668 5664 5663 5663 5657 5653 5648 5642 5641 5639 5639 5637 5636 5637 5639 5641 5644 5646 5647 5649 5651 5655 5658 5663 5668 5673 5679 5683 5687 5693 5699
5720 5714 5707 5700 5692 5686 5679 5673 5667 5661 5654 5649 5644 5637 5632 5631 5631 5633 5627 5620 5616 5613 5611 5610 5609 5610 5613 5616 5618 5621 5625 5627 5630 5633 5638 5643 5648 5653 5659 5666 5672 5678 5683
5707 5699 5690 5682 5675 5669 5662 5655 5648 5641 5633 5627 5621 5616 5608 5600 5598 5604 5603 5599 5594 5589 5584 5582 5582 5584 5585 5590 5594 5598 5601 5605 5608 5612 5616 5621 5627 5632 5638 5646 5653 5661 5667
5696 5686 5677 5668 5660 5651 5643 5636 5627 5619 5611 5602 5596 5591 5584 5575 5567 5564 5573 5571 5567 5563 5557 5556 5556 5557 5558 5561 5567 5574 5579 5585 5590 5592 5596 5601 5606 5611 5618 5625 5633 5641 5649
5677 5668 5658 5648 5638 5628 5619 5611 5603 5595 5587 5577 5569 5562 5554 5549 5543 5535 5532 5539 5536 5539 5530 5526 5526 5529 5528 5532 5537 5545 5553 5562 5567 5572 5576 5580 5585 5590 5597 5605 5613 5620 5630
5657 5647 5637 5627 5616 5606 5598 5589 5579 5570 5561 5553 5545 5535 5528 5521 5514 5508 5502 5503 5502 5503 5503 5499 5495 5494 5496 5501 5507 5515 5524 5533 5543 5552 5554 5560 5565 5571 5577 5585 5592 5600 5608
5637 5626 5616 5604 5594 5583 5574 5565 5555 5545 5536 5527 5518 5508 5501 5493 5486 5481 5476 5472 5472 5473 5474 5473 5468 5466 5467 5470 5475 5482 5493 5502 5515 5525 5530 5538 5546 5553 5559 5565 5572 5580 5589
5614 5602 5591 5582 5570 5558 5548 5537 5526 5516 5507 5498 5491 5483 5476 5470 5465 5461 5457 5453 5449 5453 5456 5457 5453 5448 5448 5449 5452 5458 5464 5474 5485 5498 5507 5520 5524 5530 5538 5546 5554 5562 5570
5588 5576 5566 5555 5544 5532 5519 5509 5501 5492 5483 5476 5469 5463 5457 5453 5448 5445 5442 5439 5436 5434 5438 5436 5439 5438 5434 5433 5434 5438 5443 5449 5458 5471 5483 5495 5498 5509 5517 5525 5533 5542 5549
5566 5554 5543 5532 5520 5508 5496 5486 5479 5471 5463 5456 5450 5446 5442 5438 5435 5431 5426 5424 5422 5418 5418 5422 5421 5421 5421 5420 5420 5423 5427 5431 5437 5445 5457 5467 5476 5484 5494 5505 5512 5518 5529
5546 5532 5520 5508 5495 5484 5475 5465 5458 5452 5446 5440 5434 5430 5427 5423 5419 5414 5410 5408 5405 5402 5400 5402 5404 5403 5404 5406 5407 5409 5413 5417 5422 5428 5436 5443 5454 5466 5476 5484 5491 5499 5510
5522 5507 5495 5486 5477 5465 5456 5448 5441 5436 5431 5425 5421 5416 5411 5407 5403 5398 5393 5390 5387 5384 5381 5381 5385 5385 5386 5389 5391 5393 5398 5404 5409 5416 5421 5429 5437 5447 5456 5462 5473 5479 5487
5497 5484 5475 5467 5459 5450 5440 5433 5427 5423 5418 5413 5407 5401 5396 5390 5384 5378 5374 5370 5367 5364 5362 5361 5363 5365 5368 5371 5375 5379 5383 5388 5395 5401 5408 5414 5421 5429 5437 5447 5456 5463 5469
5479 5468 5460 5453 5446 5437 5429 5422 5417 5412 5407 5401 5394 5387 5380 5372 5365 5359 5355 5354 5351 5347 5345 5343 5344 5346 5350 5354 5358 5363 5370 5374 5381 5387 5393 5400 5406 5414 5422 5429 5437 5443 5451
5464 5454 5448 5442 5435 5427 5420 5414 5409 5403 5396 5389 5382 5373 5365 5357 5350 5345 5340 5336 5335 5331 5329 5326 5327 5329 5333 5337 5342 5349 5357 5363 5369 5371 5378 5386 5392 5399 5407 5415 5420 5428 5434
5451 5443 5437 5431 5426 5418 5412 5406 5400 5393 5385 5376 5367 5359 5351 5344 5337 5331 5326 5321 5317 5314 5312 5311 5313 5316 5318 5322 5329 5337 5344 5351 5358 5361 5366 5373 5378 5386 5391 5398 5405 5412 5419
5437 5433 5425 5421 5415 5409 5404 5397 5389 5381 5372 5363 5354 5344 5338 5331 5323 5317 5311 5307 5303 5300 5297 5298 5301 5303 5306 5312 5318 5326 5334 5341 5348 5352 5354 5363 5365 5373 5376 5383 5390 5397 5403
5428 5422 5419 5413 5408 5402 5395 5388 5380 5371 5362 5353 5343 5334 5328 5322 5314 5307 5301 5295 5291 5288 5287 5289 5290 5293 5297 5303 5309 5317 5325 5333 5339 5342 5345 5352 5355 5360 5364 5370 5374 5379 5385
5418 5414 5411 5407 5402 5395 5388 5380 5370 5362 5354 5345 5337 5328 5322 5315 5308 5302 5295 5289 5284 5281 5280 5281 5283 5287 5291 5296 5303 5310 5317 5324 5330 5334 5336 5344 5346 5350 5354 5356 5360 5364 5368